FLE649 CYYZ-CYWG

Flight info

Callsign FLE649
Flight time N/A
Altitude 38000
Route AVSEP7 MUSIT DCT SSM DCT AGLIN DCT GOVIT NORAK6
Aircraft B38M/M-SDE1FGHILORVWXY/HB1

Departure

Time N/A
Airport Toronto Pearson International Airport (CYYZ)

Arrival

Time 2026-05-07 16:49
Airport Winnipeg / James Armstrong Richardson International Airport (CYWG)
Time Latitude Longitude Altitude Speed Heading
2026-05-07 15:35 47.25940 -86.54927 37942 ft 431 kts 296°
2026-05-07 15:35 47.28765 -86.62707 37942 ft 431 kts 296°
2026-05-07 15:36 47.31574 -86.70465 37944 ft 431 kts 296°
2026-05-07 15:36 47.34394 -86.78277 37947 ft 431 kts 296°
2026-05-07 15:37 47.37208 -86.86096 37943 ft 431 kts 296°
2026-05-07 15:37 47.40015 -86.93918 37935 ft 431 kts 296°
2026-05-07 15:38 47.42818 -87.01754 37931 ft 432 kts 296°
2026-05-07 15:38 47.45615 -87.09594 37934 ft 432 kts 296°
2026-05-07 15:39 47.48413 -87.17460 37935 ft 432 kts 296°
2026-05-07 15:39 47.51199 -87.25317 37930 ft 432 kts 296°
2026-05-07 15:40 47.53983 -87.33193 37941 ft 432 kts 296°
2026-05-07 15:40 47.56748 -87.41034 37923 ft 432 kts 296°
2026-05-07 15:41 47.59518 -87.48918 37928 ft 432 kts 296°
2026-05-07 15:41 47.62292 -87.56834 37932 ft 432 kts 296°
2026-05-07 15:42 47.65056 -87.64747 37918 ft 432 kts 296°
2026-05-07 15:42 47.67812 -87.72663 37922 ft 432 kts 296°
2026-05-07 15:43 47.70562 -87.80583 37926 ft 432 kts 296°
2026-05-07 15:43 47.73308 -87.88517 37925 ft 432 kts 296°
2026-05-07 15:44 47.76051 -87.96465 37932 ft 432 kts 296°
2026-05-07 15:44 47.78771 -88.04370 37925 ft 432 kts 296°
2026-05-07 15:45 47.81504 -88.12337 37927 ft 432 kts 296°
2026-05-07 15:45 47.84220 -88.20281 37935 ft 432 kts 296°
2026-05-07 15:46 47.88303 -88.32268 37929 ft 432 kts 296°
2026-05-07 15:47 47.91017 -88.40266 37926 ft 432 kts 296°
2026-05-07 15:47 47.93723 -88.48266 37922 ft 432 kts 296°
2026-05-07 15:48 47.96428 -88.56287 37921 ft 432 kts 296°
2026-05-07 15:48 47.99125 -88.64310 37925 ft 432 kts 296°
2026-05-07 15:49 48.01816 -88.72338 37925 ft 432 kts 296°
2026-05-07 15:49 48.04485 -88.80331 37915 ft 433 kts 296°
2026-05-07 15:50 48.07166 -88.88380 37921 ft 432 kts 296°
2026-05-07 15:50 48.09844 -88.96442 37926 ft 432 kts 296°
2026-05-07 15:51 48.12512 -89.04494 37914 ft 432 kts 296°
2026-05-07 15:51 48.15180 -89.12571 37906 ft 432 kts 296°
2026-05-07 15:52 48.17839 -89.20647 37905 ft 433 kts 296°
2026-05-07 15:52 48.20497 -89.28743 37887 ft 432 kts 296°
2026-05-07 15:53 48.23146 -89.36837 37884 ft 433 kts 296°
2026-05-07 15:53 48.25681 -89.45028 37888 ft 432 kts 289°
2026-05-07 15:54 48.27683 -89.53550 37900 ft 432 kts 289°
2026-05-07 15:54 48.29665 -89.62008 37896 ft 433 kts 289°
2026-05-07 15:55 48.31658 -89.70547 37903 ft 433 kts 289°
2026-05-07 15:55 48.33643 -89.79087 37917 ft 433 kts 289°
2026-05-07 15:56 48.35621 -89.87633 37911 ft 433 kts 289°
2026-05-07 15:56 48.37593 -89.96185 37912 ft 433 kts 289°
2026-05-07 15:57 48.39561 -90.04754 37914 ft 433 kts 289°
2026-05-07 15:57 48.41523 -90.13333 37921 ft 433 kts 289°
2026-05-07 15:58 48.43468 -90.21874 37926 ft 434 kts 289°
2026-05-07 15:58 48.45419 -90.30468 37923 ft 434 kts 289°
2026-05-07 15:59 48.47362 -90.39067 37925 ft 434 kts 289°
2026-05-07 15:59 48.49300 -90.47678 37924 ft 434 kts 289°
2026-05-07 16:00 48.51233 -90.56300 37923 ft 434 kts 289°
2026-05-07 16:00 48.53158 -90.64921 37925 ft 434 kts 289°
2026-05-07 16:01 48.55078 -90.73561 37925 ft 434 kts 289°
2026-05-07 16:01 48.56991 -90.82203 37926 ft 434 kts 289°
2026-05-07 16:02 48.58900 -90.90859 37924 ft 434 kts 289°
2026-05-07 16:02 48.60801 -90.99519 37926 ft 434 kts 289°
2026-05-07 16:03 48.62697 -91.08185 37926 ft 434 kts 289°
2026-05-07 16:03 48.64588 -91.16873 37928 ft 435 kts 289°
2026-05-07 16:04 48.66470 -91.25553 37925 ft 435 kts 289°
2026-05-07 16:04 48.68348 -91.34250 37928 ft 435 kts 289°
2026-05-07 16:05 48.70221 -91.42962 37930 ft 435 kts 289°
2026-05-07 16:05 48.72082 -91.51651 37928 ft 435 kts 289°
2026-05-07 16:06 48.73944 -91.60389 37930 ft 435 kts 289°
2026-05-07 16:06 48.75795 -91.69108 37934 ft 435 kts 289°
2026-05-07 16:07 48.77643 -91.77852 37937 ft 435 kts 289°
2026-05-07 16:07 48.79485 -91.86607 37927 ft 435 kts 289°
2026-05-07 16:08 48.81320 -91.95362 37936 ft 435 kts 289°
2026-05-07 16:08 48.83145 -92.04113 37930 ft 435 kts 289°
2026-05-07 16:09 48.84966 -92.12882 37935 ft 436 kts 289°
2026-05-07 16:09 48.86773 -92.21616 37936 ft 436 kts 289°
2026-05-07 16:10 48.88583 -92.30406 37932 ft 436 kts 289°
2026-05-07 16:10 48.90389 -92.39216 37932 ft 437 kts 289°
2026-05-07 16:11 48.92178 -92.47985 37935 ft 436 kts 289°
2026-05-07 16:11 48.93980 -92.56858 37939 ft 437 kts 289°
2026-05-07 16:12 48.95767 -92.65688 37944 ft 437 kts 288°
2026-05-07 16:12 48.97544 -92.74517 37943 ft 437 kts 288°
2026-05-07 16:13 48.99316 -92.83359 37944 ft 437 kts 288°
2026-05-07 16:13 49.01083 -92.92214 37945 ft 437 kts 288°
2026-05-07 16:14 49.02842 -93.01066 37946 ft 437 kts 288°
2026-05-07 16:14 49.04591 -93.09913 37949 ft 436 kts 288°
2026-05-07 16:15 49.06325 -93.18722 37946 ft 436 kts 288°
2026-05-07 16:15 49.08061 -93.27585 37948 ft 436 kts 288°
2026-05-07 16:16 49.09792 -93.36459 37955 ft 436 kts 288°
2026-05-07 16:16 49.11517 -93.45345 37947 ft 436 kts 288°
2026-05-07 16:17 49.13232 -93.54223 37947 ft 436 kts 288°
2026-05-07 16:17 49.14943 -93.63113 37952 ft 436 kts 288°
2026-05-07 16:18 49.16646 -93.72011 37956 ft 436 kts 288°
2026-05-07 16:18 49.18343 -93.80922 37954 ft 436 kts 288°
2026-05-07 16:19 49.20033 -93.89830 37945 ft 436 kts 288°
2026-05-07 16:19 49.21707 -93.98704 37952 ft 436 kts 288°
2026-05-07 16:20 49.23381 -94.07615 37955 ft 437 kts 288°
2026-05-07 16:20 49.25052 -94.16556 37962 ft 437 kts 288°
2026-05-07 16:21 49.26712 -94.25479 37700 ft 435 kts 288°
2026-05-07 16:21 49.27539 -94.29940 37457 ft 435 kts 288°
2026-05-07 16:21 49.28361 -94.34386 37216 ft 430 kts 288°
2026-05-07 16:21 49.29169 -94.38769 36984 ft 425 kts 288°
2026-05-07 16:22 49.29966 -94.43096 36747 ft 421 kts 288°
2026-05-07 16:22 49.30757 -94.47405 36523 ft 417 kts 288°
2026-05-07 16:22 49.31538 -94.51669 36034 ft 414 kts 288°
2026-05-07 16:22 49.32054 -94.54488 35597 ft 415 kts 288°
2026-05-07 16:23 49.32831 -94.58747 35003 ft 416 kts 288°
2026-05-07 16:23 49.33608 -94.63018 34525 ft 414 kts 288°
2026-05-07 16:23 49.34376 -94.67246 34039 ft 411 kts 289°
2026-05-07 16:23 49.35389 -94.72837 33266 ft 409 kts 289°
2026-05-07 16:24 49.35901 -94.75672 32917 ft 406 kts 289°
2026-05-07 16:24 49.36652 -94.79836 32420 ft 403 kts 289°
2026-05-07 16:24 49.37393 -94.83951 31947 ft 399 kts 289°
2026-05-07 16:24 49.38117 -94.87984 31463 ft 395 kts 289°
2026-05-07 16:25 49.38843 -94.92036 30976 ft 392 kts 289°
2026-05-07 16:25 49.39562 -94.96060 30505 ft 389 kts 290°
2026-05-07 16:25 49.40274 -95.00053 30008 ft 386 kts 290°
2026-05-07 16:25 49.40977 -95.04003 29451 ft 383 kts 290°
2026-05-07 16:26 49.41675 -95.07934 28961 ft 379 kts 290°
2026-05-07 16:26 49.42361 -95.11810 28503 ft 374 kts 290°
2026-05-07 16:26 49.43037 -95.15634 28047 ft 369 kts 290°
2026-05-07 16:26 49.43706 -95.19417 27596 ft 365 kts 290°
2026-05-07 16:27 49.44366 -95.23162 27145 ft 361 kts 290°
2026-05-07 16:27 49.45017 -95.26862 26701 ft 357 kts 290°
2026-05-07 16:27 49.45661 -95.30527 26261 ft 353 kts 290°
2026-05-07 16:27 49.46296 -95.34152 25827 ft 350 kts 290°
2026-05-07 16:28 49.46925 -95.37744 25401 ft 347 kts 290°
2026-05-07 16:28 49.47549 -95.41317 24975 ft 344 kts 290°
2026-05-07 16:28 49.48166 -95.44857 24553 ft 342 kts 290°
2026-05-07 16:28 49.48778 -95.48376 24131 ft 339 kts 290°
2026-05-07 16:29 49.49385 -95.51870 23714 ft 338 kts 290°
2026-05-07 16:29 49.49988 -95.55353 23244 ft 336 kts 290°
2026-05-07 16:29 49.50586 -95.58813 22779 ft 333 kts 290°
2026-05-07 16:29 49.51177 -95.62237 22364 ft 330 kts 290°
2026-05-07 16:30 49.51754 -95.65586 21964 ft 326 kts 290°
2026-05-07 16:30 49.52332 -95.68945 21558 ft 323 kts 290°
2026-05-07 16:30 49.52902 -95.72267 21157 ft 319 kts 290°
2026-05-07 16:30 49.53464 -95.75545 20763 ft 316 kts 290°
2026-05-07 16:31 49.54023 -95.78812 20362 ft 313 kts 289°
2026-05-07 16:31 49.54620 -95.82016 19914 ft 309 kts 296°
2026-05-07 16:31 49.55493 -95.85011 19504 ft 306 kts 298°
2026-05-07 16:31 49.56345 -95.88001 19145 ft 303 kts 297°
2026-05-07 16:32 49.57176 -95.90964 18773 ft 300 kts 297°
2026-05-07 16:32 49.57994 -95.93911 18400 ft 298 kts 297°
2026-05-07 16:32 49.58800 -95.96838 18013 ft 295 kts 296°
2026-05-07 16:32 49.59595 -95.99736 17625 ft 292 kts 296°
2026-05-07 16:33 49.60378 -96.02602 17255 ft 289 kts 296°
2026-05-07 16:33 49.61154 -96.05443 16881 ft 286 kts 296°
2026-05-07 16:33 49.61920 -96.08255 16523 ft 283 kts 296°
2026-05-07 16:33 49.62677 -96.11034 16167 ft 280 kts 296°
2026-05-07 16:34 49.63430 -96.13804 15819 ft 282 kts 296°
2026-05-07 16:34 49.64181 -96.16567 15460 ft 283 kts 296°
2026-05-07 16:34 49.64944 -96.19381 15109 ft 284 kts 295°
2026-05-07 16:34 49.65705 -96.22186 14763 ft 283 kts 295°
2026-05-07 16:35 49.66462 -96.24985 14399 ft 282 kts 295°
2026-05-07 16:35 49.67215 -96.27772 14036 ft 279 kts 295°
2026-05-07 16:35 49.67957 -96.30522 13685 ft 277 kts 295°
2026-05-07 16:35 49.68695 -96.33256 13294 ft 274 kts 295°
2026-05-07 16:36 49.69422 -96.35958 12933 ft 271 kts 295°
2026-05-07 16:36 49.70144 -96.38639 12584 ft 268 kts 295°
2026-05-07 16:36 49.70851 -96.41273 12270 ft 265 kts 295°
2026-05-07 16:36 49.71553 -96.43891 11922 ft 263 kts 295°
2026-05-07 16:37 49.72250 -96.46487 11606 ft 260 kts 295°
2026-05-07 16:37 49.72950 -96.49094 11267 ft 264 kts 295°
2026-05-07 16:37 49.73629 -96.51743 10925 ft 267 kts 288°
2026-05-07 16:37 49.73804 -96.54611 10567 ft 270 kts 273°
2026-05-07 16:38 49.73816 -96.57504 10194 ft 268 kts 274°
2026-05-07 16:38 49.73829 -96.60342 10028 ft 259 kts 274°
2026-05-07 16:38 49.73834 -96.63117 9679 ft 258 kts 273°
2026-05-07 16:38 49.73834 -96.65881 9315 ft 256 kts 273°
2026-05-07 16:39 49.73831 -96.68622 8976 ft 254 kts 273°
2026-05-07 16:39 49.73827 -96.71307 8641 ft 252 kts 273°
2026-05-07 16:39 49.73822 -96.74002 8314 ft 249 kts 273°
2026-05-07 16:39 49.73816 -96.76671 7989 ft 247 kts 273°
2026-05-07 16:40 49.73809 -96.79316 7663 ft 245 kts 272°
2026-05-07 16:40 49.73802 -96.81939 7340 ft 242 kts 272°
2026-05-07 16:40 49.73794 -96.84525 7034 ft 240 kts 272°
2026-05-07 16:40 49.73786 -96.87090 6724 ft 238 kts 272°
2026-05-07 16:41 49.73778 -96.89661 6418 ft 241 kts 272°
2026-05-07 16:41 49.73768 -96.92227 6256 ft 235 kts 272°
2026-05-07 16:41 49.73759 -96.94703 6132 ft 225 kts 272°
2026-05-07 16:41 49.73745 -96.97050 6070 ft 213 kts 271°
2026-05-07 16:42 49.73708 -96.99316 5807 ft 209 kts 271°
2026-05-07 16:42 49.73672 -97.01555 5511 ft 207 kts 271°
2026-05-07 16:42 49.73636 -97.03764 5261 ft 204 kts 271°
2026-05-07 16:42 49.73601 -97.05942 5025 ft 203 kts 271°
2026-05-07 16:43 49.73566 -97.08115 4804 ft 205 kts 271°
2026-05-07 16:43 49.73531 -97.10323 4567 ft 205 kts 271°
2026-05-07 16:43 49.73494 -97.12554 4320 ft 205 kts 271°
2026-05-07 16:43 49.73465 -97.14726 4086 ft 204 kts 274°
2026-05-07 16:44 49.73631 -97.16896 3853 ft 202 kts 281°
2026-05-07 16:44 49.73846 -97.19021 3647 ft 198 kts 281°
2026-05-07 16:44 49.74051 -97.21080 3496 ft 190 kts 281°
2026-05-07 16:44 49.74244 -97.23047 3407 ft 179 kts 281°
2026-05-07 16:45 49.74461 -97.24905 3349 ft 175 kts 292°
2026-05-07 16:45 49.75208 -97.26302 3325 ft 172 kts 327°
2026-05-07 16:45 49.76334 -97.26944 3238 ft 175 kts 349°
2026-05-07 16:45 49.77523 -97.26938 3096 ft 177 kts
2026-05-07 16:46 49.78746 -97.26650 2904 ft 178 kts
2026-05-07 16:46 49.79956 -97.26360 2692 ft 172 kts
2026-05-07 16:46 49.81068 -97.26103 2548 ft 152 kts
2026-05-07 16:46 49.82054 -97.25876 2342 ft 136 kts
2026-05-07 16:47 49.82993 -97.25667 2146 ft 136 kts
2026-05-07 16:47 49.83923 -97.25450 1947 ft 135 kts
2026-05-07 16:47 49.84851 -97.25232 1746 ft 134 kts
2026-05-07 16:47 49.85782 -97.25017 1540 ft 136 kts
2026-05-07 16:48 49.86727 -97.24796 1337 ft 139 kts
2026-05-07 16:48 49.87682 -97.24607 1195 ft 138 kts
2026-05-07 16:48 49.88622 -97.24388 1019 ft 136 kts
2026-05-07 16:48 49.89546 -97.24184 829 ft 132 kts
2026-05-07 16:49 49.90375 -97.23996 788 ft 98 kts
2026-05-07 16:49 49.90845 -97.23886 793 ft 45 kts
2026-05-07 16:49 49.91118 -97.23825 790 ft 28 kts
2026-05-07 16:49 49.91219 -97.23766 792 ft 13 kts 68°
2026-05-07 16:50 49.91199 -97.23615 791 ft 16 kts 130°
2026-05-07 16:50 49.91098 -97.23530 791 ft 18 kts 155°
2026-05-07 16:50 49.90975 -97.23443 788 ft 19 kts 154°
2026-05-07 16:50 49.90879 -97.23364 788 ft 13 kts 137°
2026-05-07 16:51 49.90874 -97.23214 787 ft 16 kts 84°
2026-05-07 16:51 49.90884 -97.23030 786 ft 19 kts 85°
2026-05-07 16:51 49.90887 -97.22864 786 ft 13 kts 107°
2026-05-07 16:51 49.90832 -97.22740 786 ft 15 kts 127°
2026-05-07 16:52 49.90773 -97.22611 785 ft 13 kts 117°
2026-05-07 16:52 49.90764 -97.22491 785 ft 11 kts 86°
2026-05-07 16:52 49.90751 -97.22426 786 ft 6 kts 161°
2026-05-07 16:52 49.90713 -97.22423 786 ft 4 kts 179°
2026-05-07 16:53 49.90683 -97.22423 787 ft 1 kts 180°
2026-05-07 16:53 49.90678 -97.22422 787 ft 0 kts 180°